Location: Big Prairie
(40.6673°N, 82.0952°W)
Time: 15:02:43
(UTC+00:00)

Meteor 1-26 Rocket - Pass Details

Date: 05 July 2022
Orbit: 811 x 924 km, 81.3° (Epoch: 18 August)

Event Time Altitude Azimuth Distance (km) Brightness Sun altitude
Rises 05:37:47 0° 358° (N) 3,494 8.7 -26.5°
Reaches altitude 10° 05:40:25 10° 7° (N) 2,568 7.7 -26.5°
Maximum altitude 05:45:49 37° 74° (ENE) 1,385 5.4 -26.5°
Enters shadow 05:47:35 30° 109° (ESE) 1,563 5.4 -26.5°
